[[{"header":{"parameterUnit":"m.s-1","parameterCategory":1,"la1":30.2992,"la2":30.254,"lo1":-89.0895,"lo2":-89.0443,"dy":0.0025,"dx":0.0025,"nx":19,"ny":19,"refTime":"2026-05-10T09:00:00:Z","depth":0,"parameterNumber":2,"parameterNumberName":"U-component_of_WINDS"},"data":[0,0,0,-1.7563,-1.7565,-1.7642,-1.7642,-1.7738,-1.7739,0,0,0,0,0,0,0,0,0,0,0,-1.754,-1.754,-1.7563,-1.7565,-1.7642,-1.7642,-1.7738,-1.7739,0,0,0,0,0,0,0,0,0,0,0,-1.7539,-1.754,-1.7541,-1.7565,-1.7642,-1.7642,-1.7738,-1.7681,0,0,0,0,0,0,0,0,0,0,-1.7607,-1.7584,-1.754,-1.7541,-1.7566,-1.7642,-1.7642,-1.7678,-1.7684,-1.7703,0,-1.7719,0,-1.773,-1.7745,-1.7746,0,0,0,-1.7566,-1.7578,-1.76,-1.7541,-1.7567,-1.7642,-1.7607,-1.7682,-1.7689,-1.7711,-1.772,-1.7724,-1.7732,-1.7746,-1.7746,-1.785,-1.785,0,0,-1.7562,-1.7553,-1.7595,-1.7604,-1.7593,-1.7605,-1.761,-1.7686,-1.7695,-1.7721,-1.7726,-1.7734,-1.7747,-1.7747,-1.7849,-1.785,0,0,0,-1.7549,-1.755,-1.757,-1.7601,-1.7614,-1.7607,-1.7613,-1.7692,-1.7699,-1.7727,-1.7735,-1.7747,-1.7748,-1.7849,-1.7849,-1.7862,0,0,0,-1.7547,-1.7543,-1.7568,-1.7563,-1.7613,-1.7654,-1.7617,-1.7694,-1.7703,-1.7734,-1.7747,-1.7749,-1.7848,-1.7849,-1.7861,-1.787,0,0,0,-1.7535,-1.7541,-1.7552,-1.7563,-1.7595,-1.7653,-1.7665,-1.7696,-1.7707,-1.7746,-1.7749,-1.7848,-1.7849,-1.786,-1.7868,-1.7894,0,0,0,-1.752,-1.7563,-1.7552,-1.7602,-1.7595,-1.7661,-1.7664,-1.7714,-1.7749,-1.7748,-1.7848,-1.7849,-1.7859,-1.7867,-1.7893,-1.7915,-1.7923,0,0,-1.7569,-1.7568,-1.7599,-1.7591,-1.7657,-1.765,-1.7718,-1.7758,-1.777,-1.7822,-1.7825,-1.7862,-1.7868,-1.7894,-1.7973,-1.7979,0,0,0,-1.7611,-1.7633,-1.7652,-1.7684,-1.7716,-1.7744,-1.7774,-1.7789,-1.7834,-1.7795,-1.7879,-1.7883,-1.7898,-1.7909,-1.7915,-1.7928,-1.7854,-1.7854,-1.7854,-1.7667,-1.768,-1.7731,-1.7753,-1.7784,-1.7815,-1.7841,-1.7867,-1.787,-1.789,-1.7906,-1.7952,-1.7964,-1.7968,-1.7983,-1.7918,-1.7918,-1.7918,-1.7918,-1.774,-1.7772,-1.7776,-1.7826,-1.7839,-1.7882,-1.7913,-1.7915,-1.7956,-1.7941,-1.7956,-1.7938,-1.7975,-1.7988,-1.792,-1.7919,-1.7919,-1.7919,-1.7919,-1.7778,-1.7795,-1.7812,-1.786,-1.7895,-1.7916,-1.7955,-1.7966,-1.7976,-1.7991,-1.8008,-1.8008,-1.8009,-1.7998,-1.7998,-1.7999,-1.7999,-1.7999,-1.7999,-1.781,-1.7829,-1.7861,-1.7898,-1.7919,-1.7949,-1.7981,-1.8003,-1.8029,-1.8034,-1.8034,-1.8036,-1.7976,-1.7961,-1.8001,-1.8001,-1.8001,-1.8,-1.8,-1.7879,-1.7865,-1.7914,-1.7936,-1.7979,-1.8013,-1.8026,-1.807,-1.8089,-1.8108,-1.8107,-1.8061,-1.8061,-1.8057,-1.8044,-1.8104,-1.8104,-1.8104,-1.8104,-1.791,-1.7911,-1.7964,-1.7998,-1.8033,-1.8049,-1.8104,-1.8129,-1.8152,-1.8165,-1.8158,-1.8142,-1.8137,-1.814,-1.8134,-1.8122,-1.82,-1.82,-1.8201,-1.7953,-1.7958,-1.8003,-1.8025,-1.8059,-1.8089,-1.8141,-1.818,-1.8203,-1.8205,-1.8175,-1.8171,-1.8145,-1.8137,-1.8137,-1.8127,-1.8106,0,0]},{"header":{"parameterUnit":"m.s-1","parameterCategory":1,"la1":30.2992,"la2":30.254,"lo1":-89.0895,"lo2":-89.0443,"dy":0.0025,"dx":0.0025,"nx":19,"ny":19,"refTime":"2026-05-10T09:00:00:Z","depth":0,"parameterNumber":3,"parameterNumberName":"V-component_of_WINDS"},"data":[0,0,0,-0.7908,-0.7907,-0.7857,-0.7857,-0.7795,-0.7794,0,0,0,0,0,0,0,0,0,0,0,-0.7923,-0.7923,-0.7908,-0.7907,-0.7857,-0.7857,-0.7795,-0.7794,0,0,0,0,0,0,0,0,0,0,0,-0.7924,-0.7923,-0.7923,-0.7907,-0.7857,-0.7857,-0.7795,-0.7832,0,0,0,0,0,0,0,0,0,0,-0.788,-0.7894,-0.7923,-0.7923,-0.7907,-0.7857,-0.7857,-0.7834,-0.783,-0.7818,0,-0.7807,0,-0.78,-0.779,-0.779,0,0,0,-0.7907,-0.7898,-0.7884,-0.7923,-0.7906,-0.7857,-0.788,-0.7832,-0.7827,-0.7812,-0.7806,-0.7804,-0.7799,-0.779,-0.7789,-0.7723,-0.7722,0,0,-0.7909,-0.7914,-0.7888,-0.7881,-0.7889,-0.7881,-0.7878,-0.7829,-0.7822,-0.7806,-0.7802,-0.7798,-0.7789,-0.7789,-0.7723,-0.7722,0,0,0,-0.7918,-0.7916,-0.7904,-0.7884,-0.7875,-0.788,-0.7876,-0.7824,-0.782,-0.7802,-0.7797,-0.7789,-0.7788,-0.7723,-0.7723,-0.7713,0,0,0,-0.7919,-0.7921,-0.7905,-0.7908,-0.7876,-0.7849,-0.7873,-0.7823,-0.7817,-0.7797,-0.7789,-0.7787,-0.7723,-0.7723,-0.7714,-0.7707,0,0,0,-0.7927,-0.7922,-0.7915,-0.7908,-0.7887,-0.7849,-0.7842,-0.7822,-0.7815,-0.779,-0.7787,-0.7724,-0.7723,-0.7715,-0.7708,-0.7692,0,0,0,-0.7935,-0.7906,-0.7915,-0.788,-0.7887,-0.7844,-0.7842,-0.781,-0.7787,-0.7788,-0.7723,-0.7723,-0.7715,-0.7709,-0.7693,-0.7678,-0.7672,0,0,-0.7901,-0.7902,-0.7881,-0.7888,-0.7845,-0.7851,-0.7807,-0.7781,-0.7774,-0.774,-0.7739,-0.7714,-0.7709,-0.7692,-0.764,-0.7636,0,0,0,-0.7872,-0.7857,-0.7845,-0.7824,-0.7805,-0.7788,-0.7769,-0.776,-0.7732,-0.7758,-0.7703,-0.77,-0.769,-0.7683,-0.7679,-0.767,-0.772,-0.772,-0.772,-0.7828,-0.7823,-0.7789,-0.7778,-0.7758,-0.774,-0.7724,-0.7709,-0.7707,-0.7695,-0.7684,-0.7654,-0.7646,-0.7643,-0.7634,-0.7677,-0.7677,-0.7677,-0.7677,-0.7777,-0.7755,-0.7757,-0.7725,-0.7719,-0.7692,-0.7675,-0.7676,-0.765,-0.7661,-0.7652,-0.7663,-0.7638,-0.763,-0.7676,-0.7676,-0.7676,-0.7676,-0.7676,-0.7747,-0.7735,-0.7727,-0.7698,-0.7677,-0.7668,-0.7644,-0.764,-0.7636,-0.7627,-0.7616,-0.7616,-0.7616,-0.7622,-0.7622,-0.7622,-0.7622,-0.7622,-0.7622,-0.7718,-0.7709,-0.7689,-0.7669,-0.7657,-0.764,-0.7625,-0.7613,-0.7599,-0.7597,-0.7597,-0.7598,-0.7637,-0.7647,-0.762,-0.762,-0.7621,-0.7621,-0.7621,-0.7666,-0.7678,-0.7648,-0.7636,-0.7614,-0.7594,-0.7591,-0.7567,-0.7557,-0.7546,-0.755,-0.758,-0.758,-0.7583,-0.7591,-0.7551,-0.7551,-0.7551,-0.7551,-0.764,-0.7641,-0.7611,-0.7593,-0.7574,-0.7569,-0.7537,-0.7526,-0.7517,-0.751,-0.7516,-0.7527,-0.753,-0.7528,-0.7532,-0.754,-0.7488,-0.7488,-0.7487,-0.7608,-0.7608,-0.758,-0.7572,-0.7555,-0.7541,-0.7511,-0.7491,-0.7483,-0.7485,-0.7505,-0.7508,-0.7525,-0.7531,-0.7532,-0.7538,-0.7552,0,0]}]]